Weather History for Crystal River, FL

Change the Weather History Date:

Wednesday, January 16, 2013

  Actual Average (KBKV) Record (KBKV)
Temperature  
Mean Temperature 68 °F -  
Max Temperature 80 °F 67 °F 81 °F (2007)
Min Temperature 55 °F 41 °F 28 °F (2003)
Cooling Degree Days 2    
Growing Degree Days 18 (Base 50)    
Moisture  
Dew Point 60 °F    
Average Humidity 83    
Maximum Humidity 100    
Minimum Humidity 51    
Precipitation  
Precipitation 0.00 in - - ()
Sea Level Pressure  
Sea Level Pressure 30.06 in    
Wind  
Wind Speed 1 mph (SW)    
Max Wind Speed 9 mph    
Max Gust Speed -    
Visibility 10 miles    
Events      
Averages and records for this station are not official NWS values.
T = Trace of Precipitation, MM = Missing Value Source: NWS Daily Summary

Daily Weather History Graph

Daily Weather History Graph

Search for Another Location

Airport:

Trip Planner

Search our weather history database for the weather conditions in past years. The results will help you decide how hot, cold, wet, or windy it might be!

Date:

Astronomy

Jan. 16, 2013 Rise Set
Actual Time 7:24 AM EST 5:56 PM EST
Civil Twilight 6:58 AM EST 6:21 PM EST
Nautical Twilight 6:30 AM EST 6:50 PM EST
Astronomical Twilight 6:01 AM EST 7:19 PM EST
Moon 10:29 AM EST (1/16) 11:13 PM EST (1/16)
Length of Visible Light 11h 22m
Length of Day
10h 31m
Waxing Crescent, 28% of the Moon is Illuminated
Jan 16
Waxing Crescent
Jan 18
First Quarter
Jan 26
Full
Feb 3
Last Quarter
Feb 10
New

Hourly Weather History & Observations

Time (EST) Temp. Heat Index Dew Point Humidity Pressure Visibility Wind Dir Wind Speed Gust Speed Precip Events Conditions
12:15 AM 62.6 °F - 60.8 °F 94% 30.08 in 10.0 mi Calm Calm - N/A   Mostly Cloudy
12:35 AM 60.8 °F - 60.8 °F 100% 30.07 in 10.0 mi Calm Calm - N/A   Scattered Clouds
1:15 AM 60.8 °F - 60.8 °F 100% 30.07 in 10.0 mi Calm Calm - N/A   Clear
1:35 AM 60.8 °F - 60.8 °F 100% 30.08 in 10.0 mi Calm Calm - N/A   Mostly Cloudy
1:55 AM 60.8 °F - 60.8 °F 100% 30.07 in 10.0 mi Calm Calm - N/A   Overcast
2:15 AM 62.6 °F - 60.8 °F 94% 30.06 in 10.0 mi Calm Calm - N/A   Overcast
2:35 AM 60.8 °F - 59.0 °F 94% 30.06 in 10.0 mi Calm Calm - N/A   Scattered Clouds
2:55 AM 60.8 °F - 59.0 °F 94% 30.06 in 10.0 mi Calm Calm - N/A   Mostly Cloudy
3:15 AM 60.8 °F - 60.8 °F 100% 30.06 in 10.0 mi Calm Calm - N/A   Overcast
3:35 AM 60.8 °F - 59.0 °F 94% 30.06 in 10.0 mi Calm Calm - N/A   Scattered Clouds
3:55 AM 59.0 °F - 59.0 °F 100% 30.06 in 5.0 mi Calm Calm - N/A   Scattered Clouds
4:15 AM 59.0 °F - 59.0 °F 100% 30.05 in 7.0 mi Calm Calm - N/A   Mostly Cloudy
4:35 AM 59.0 °F - 59.0 °F 100% 30.05 in 10.0 mi Calm Calm - N/A   Scattered Clouds
4:55 AM 57.2 °F - 57.2 °F 100% 30.05 in 7.0 mi Calm Calm - N/A   Clear
5:15 AM 57.2 °F - 57.2 °F 100% 30.05 in 7.0 mi Calm Calm - N/A   Clear
5:35 AM 57.2 °F - 57.2 °F 100% 30.05 in 7.0 mi Calm Calm - N/A   Clear
5:55 AM 55.4 °F - 55.4 °F 100% 30.06 in 7.0 mi Calm Calm - N/A   Clear
6:15 AM 55.4 °F - 55.4 °F 100% 30.06 in 10.0 mi Calm Calm - N/A   Clear
6:35 AM 55.4 °F - 55.4 °F 100% 30.06 in 10.0 mi Calm Calm - N/A   Clear
6:55 AM 55.4 °F - 55.4 °F 100% 30.07 in 7.0 mi Calm Calm - N/A   Clear
7:35 AM 57.2 °F - 55.4 °F 94% 30.09 in 7.0 mi Calm Calm - N/A   Mostly Cloudy
7:55 AM 59.0 °F - 57.2 °F 94% 30.08 in 7.0 mi Calm Calm - N/A   Scattered Clouds
8:15 AM 59.0 °F - 59.0 °F 100% 30.09 in 7.0 mi Calm Calm - N/A   Clear
8:35 AM 62.6 °F - 62.6 °F 100% 30.10 in 7.0 mi Calm Calm - N/A   Clear
8:55 AM 64.4 °F - 62.6 °F 94% 30.10 in 10.0 mi Calm Calm - N/A   Scattered Clouds
9:15 AM 68.0 °F - 64.4 °F 88% 30.11 in 10.0 mi Calm Calm - N/A   Scattered Clouds
9:35 AM 69.8 °F - 64.4 °F 83% 30.11 in 10.0 mi SSE 3.5 mph - N/A   Overcast
9:55 AM 69.8 °F - 64.4 °F 83% 30.11 in 10.0 mi South 3.5 mph - N/A   Overcast
10:15 AM 71.6 °F - 64.4 °F 78% 30.11 in 10.0 mi South 3.5 mph - N/A   Overcast
10:35 AM 73.4 °F - 64.4 °F 73% 30.11 in 10.0 mi South 3.5 mph - N/A   Overcast
10:55 AM 73.4 °F - 62.6 °F 69% 30.10 in 10.0 mi South 4.6 mph - N/A   Mostly Cloudy
11:15 AM 77.0 °F - 62.6 °F 61% 30.09 in 10.0 mi SW 3.5 mph - N/A   Overcast
11:35 AM 77.0 °F - 60.8 °F 57% 30.09 in 10.0 mi SSW 3.5 mph - N/A   Overcast
11:55 AM 77.0 °F - 60.8 °F 57% 30.08 in 10.0 mi South 4.6 mph - N/A   Overcast
12:15 PM 77.0 °F - 59.0 °F 54% 30.07 in 10.0 mi WSW 8.1 mph - N/A   Overcast
12:35 PM 77.0 °F - 60.8 °F 57% 30.06 in 10.0 mi WSW 6.9 mph - N/A   Overcast
12:55 PM 78.8 °F - 60.8 °F 54% 30.05 in 10.0 mi West 5.8 mph - N/A   Overcast
1:15 PM 78.8 °F - 60.8 °F 54% 30.04 in 10.0 mi WSW 5.8 mph - N/A   Scattered Clouds
1:35 PM 78.8 °F - 60.8 °F 54% 30.04 in 10.0 mi SW 5.8 mph - N/A   Mostly Cloudy
1:55 PM 80.6 °F 81.5 °F 60.8 °F 51% 30.03 in 10.0 mi West 8.1 mph - N/A   Scattered Clouds
2:15 PM 78.8 °F - 60.8 °F 54% 30.03 in 10.0 mi WSW 9.2 mph - N/A   Clear
2:35 PM 78.8 °F - 62.6 °F 57% 30.02 in 10.0 mi WSW 8.1 mph - N/A   Clear
2:55 PM 78.8 °F - 62.6 °F 57% 30.02 in 10.0 mi West 9.2 mph - N/A   Clear
3:15 PM 78.8 °F - 60.8 °F 54% 30.01 in 10.0 mi SSE 3.5 mph - N/A   Clear
3:35 PM 78.8 °F - 59.0 °F 51% 30.01 in 10.0 mi South 4.6 mph - N/A   Clear
3:55 PM 78.8 °F - 60.8 °F 54% 30.01 in 10.0 mi WSW 5.8 mph - N/A   Clear
4:15 PM 78.8 °F - 60.8 °F 54% 30.01 in 10.0 mi WSW 5.8 mph - N/A   Clear
4:35 PM 78.8 °F - 62.6 °F 57% 30.01 in 10.0 mi WSW 5.8 mph - N/A   Clear
4:55 PM 77.0 °F - 62.6 °F 61% 30.02 in 10.0 mi WSW 5.8 mph - N/A   Clear
5:35 PM 73.4 °F - 62.6 °F 69% 30.03 in 10.0 mi West 5.8 mph - N/A   Clear
5:55 PM 71.6 °F - 62.6 °F 73% 30.03 in 10.0 mi West 3.5 mph - N/A   Clear
6:15 PM 69.8 °F - 62.6 °F 78% 30.03 in 10.0 mi Calm Calm - N/A   Clear
6:35 PM 68.0 °F - 62.6 °F 83% 30.03 in 10.0 mi Calm Calm - N/A   Clear
6:55 PM 66.2 °F - 62.6 °F 88% 30.04 in 10.0 mi Calm Calm - N/A   Clear
7:15 PM 64.4 °F - 60.8 °F 88% 30.04 in 10.0 mi Calm Calm - N/A   Clear
7:35 PM 64.4 °F - 60.8 °F 88% 30.04 in 10.0 mi Calm Calm - N/A   Clear
7:55 PM 62.6 °F - 60.8 °F 94% 30.04 in 10.0 mi Calm Calm - N/A   Clear
8:15 PM 60.8 °F - 60.8 °F 100% 30.04 in 10.0 mi Calm Calm - N/A   Clear
8:35 PM 60.8 °F - 59.0 °F 94% 30.05 in 10.0 mi Calm Calm - N/A   Clear
8:55 PM 60.8 °F - 60.8 °F 100% 30.06 in 10.0 mi Calm Calm - N/A   Clear
9:15 PM 60.8 °F - 59.0 °F 94% 30.06 in 10.0 mi Calm Calm - N/A   Clear
9:35 PM 59.0 °F - 59.0 °F 100% 30.05 in 10.0 mi Calm Calm - N/A   Clear
9:55 PM 59.0 °F - 59.0 °F 100% 30.05 in 10.0 mi Calm Calm - N/A   Clear
10:15 PM 59.0 °F - 57.2 °F 94% 30.05 in 10.0 mi Calm Calm - N/A   Clear
10:35 PM 57.2 °F - 55.4 °F 94% 30.05 in 10.0 mi Calm Calm - N/A   Clear
10:55 PM 57.2 °F - 55.4 °F 94% 30.04 in 10.0 mi Calm Calm - N/A   Clear
11:15 PM 55.4 °F - 55.4 °F 100% 30.04 in 10.0 mi Calm Calm - N/A   Clear
11:35 PM 55.4 °F - 55.4 °F 100% 30.04 in 10.0 mi Calm Calm - N/A   Scattered Clouds
11:55 PM 55.4 °F - 55.4 °F 100% 30.04 in 10.0 mi Calm Calm - N/A   Scattered Clouds